Regional Weather Roundup
Issued by NWS

Home | Current Version | Previous Version | Text Only | Print | Product List | Glossary On
Versions: 1 2 3 4 5 6 7 8 9 10 11 12 13 14 15 16 17 18 19 20 21 22 23 24 25 26 27 28
000
ASUS45 KSLC 290110
RWRUT

UTAH REGIONAL WEATHER ROUNDUP
NATIONAL WEATHER SERVICE SALT LAKE CITY UT
700 PM MDT WED JUN 28 2017

UTZ001>011-023>025-290200-

NORTHERN UTAH

CITY           SKY/WX    TMP DP  RH WIND       PRES   REMARKS
BRIGHAM CITY   PTSUNNY   81  37  20 NW12      29.84S
HILL AFB       MOSUNNY   83  39  21 N8        29.86R
LOGAN          MOSUNNY   76  45  33 N6        29.86F
OGDEN          SUNNY     84  38  19 N9        29.82F
SALT LAKE CITY MOSUNNY   89  30  12 N15       29.80S
TOOELE VALLEY  SUNNY     86  39  19 N8        29.82R
WENDOVER       SUNNY     88  29  12 W21G26    29.84R
HEBER CITY     MOSUNNY   82  30  15 NW8G18    29.88S
WEST JORDAN    MOSUNNY   85  49  28 NW13G20   29.84S

$$

UTZ011>015-024>027-290200-

CENTRAL/NORTHEAST UTAH

CITY           SKY/WX    TMP DP  RH WIND       PRES   REMARKS
PROVO AIRPORT  PTSUNNY   86  35  16 N14       29.81F
MOAB/CANYONLAN MOSUNNY   96   6   3 S8        29.71S
DELTA          MOSUNNY   90  21   8 N17       29.80S
PRICE          SUNNY     87  19   8 W15G25    29.88S
ROOSEVELT      SUNNY     88  25  10 W21G26    29.84R
VERNAL         MOSUNNY   88  25  10 W16G29    29.81R

$$

UTZ013>016-019>022-027-290200-

SOUTHERN UTAH

CITY           SKY/WX    TMP DP  RH WIND       PRES   REMARKS
BRYCE CANYON   SUNNY     77  12   8 W18G24    30.09S
CEDAR CITY     SUNNY     87   9   5 SW17G24   29.92F
MILFORD        SUNNY     92  14   5 S22G33    29.82S
ST GEORGE      PTCLDY   100  18   5 W15G26    29.72F HX  93
HANKSVILLE     SUNNY     97  14   5 W16G22    29.74S HX  90
BLANDING       SUNNY     89   9   5 SW16G35   29.98S

$$

REGIONAL REPORTS     COLORADO/ARIZONA

CITY           SKY/WX    TMP DP  RH WIND       PRES   REMARKS
CRAIG, CO      PTSUNNY   82  20  10 W17G29    29.88S
GRAND JUNCTION SUNNY     94  14   5 SW15      29.76S
RIFLE, CO      MOSUNNY   92   8   4 W17G25    29.81S
MONTROSE, CO   MOSUNNY   89  11   5 SW14      29.87S
CORTEZ, CO     SUNNY     89   0   3 SW15G28   29.93F
COLORADO CITY    N/A     93  21   7 W13G20    29.92S
PAGE, AZ       SUNNY     98   6   3 W12G22    29.79  HX  90
GRAND CANYON   SUNNY     84   4   5 W17G28    30.08R
KINGMAN, AZ    SUNNY     96  18   6 SW20G25   29.85F
FLAGSTAFF, AZ  SUNNY     80  15   8 SW20G26   30.13R

$$

REGIONAL REPORTS    NEVADA/IDAHO/WYOMING

CITY           SKY/WX    TMP DP  RH WIND       PRES   REMARKS
LAS VEGAS, NV  SUNNY    104   8   3 W14       29.67F HX  95
ELY, NY        SUNNY     83  29  14 W14       29.98S
ELKO, NV       MOSUNNY   83  26  12 W22G33    29.95S
POCATELLO, ID  MOSUNNY   76  46  34 W10       29.87F
BURLEY, ID     SUNNY     77  40  26 W10G16    29.85S
FORT BRIDGER,    N/A     75  27  17 NW16G32   30.03R
EVANSTON, WY   SUNNY     73  26  17 W20       30.01S
ROCK SPRINGS,  PTSUNNY   69  33  26 N15G26    29.97R
KEMMERER, WY     N/A     64  32  29 NW14G20   30.04R

$$




USA.gov is the U.S. government's official web portal to all federal, state and local government web resources and services.